[[{"header":{"parameterUnit":"m.s-1","parameterCategory":1,"la1":30.2992,"la2":30.254,"lo1":-89.0895,"lo2":-89.0443,"dy":0.0025,"dx":0.0025,"nx":19,"ny":19,"refTime":"2026-03-09T09:00:00:Z","depth":0,"parameterNumber":2,"parameterNumberName":"U-component_of_WINDS"},"data":[0,0,0,-2.5419,-2.5421,-2.5549,-2.5549,-2.5707,-2.5709,0,0,0,0,0,0,0,0,0,0,0,-2.5376,-2.5377,-2.5418,-2.5421,-2.5549,-2.5549,-2.5707,-2.5709,0,0,0,0,0,0,0,0,0,0,0,-2.5375,-2.5376,-2.5378,-2.5422,-2.5549,-2.555,-2.5707,-2.5613,0,0,0,0,0,0,0,0,0,0,-2.549,-2.5445,-2.5376,-2.5378,-2.5423,-2.5549,-2.555,-2.5608,-2.5619,-2.5647,0,-2.5668,0,-2.5691,-2.5719,-2.5719,0,0,0,-2.5426,-2.5436,-2.5475,-2.5378,-2.5424,-2.5548,-2.5493,-2.5614,-2.5626,-2.566,-2.5671,-2.5677,-2.5693,-2.572,-2.572,-2.5864,-2.5864,0,0,-2.5419,-2.5396,-2.5467,-2.5482,-2.546,-2.5488,-2.5496,-2.5621,-2.5632,-2.5671,-2.5681,-2.5696,-2.5721,-2.5722,-2.5863,-2.5864,0,0,0,-2.5396,-2.5391,-2.5427,-2.5476,-2.5499,-2.5492,-2.5501,-2.5627,-2.564,-2.5682,-2.5698,-2.5721,-2.5723,-2.5863,-2.5864,-2.5864,0,0,0,-2.5392,-2.5378,-2.5424,-2.5412,-2.5496,-2.5564,-2.5504,-2.5631,-2.5646,-2.5697,-2.5721,-2.5725,-2.5862,-2.5863,-2.5863,-2.5868,0,0,0,-2.5369,-2.5375,-2.5392,-2.541,-2.5464,-2.5562,-2.5583,-2.5635,-2.5656,-2.5719,-2.5725,-2.5862,-2.5863,-2.5862,-2.5866,-2.5898,0,0,0,-2.5339,-2.5391,-2.5391,-2.5456,-2.5463,-2.5561,-2.5583,-2.5658,-2.5713,-2.5722,-2.5862,-2.5863,-2.5861,-2.5865,-2.5897,-2.592,-2.5928,0,0,-2.5392,-2.5397,-2.5436,-2.544,-2.5533,-2.5544,-2.5638,-2.571,-2.5738,-2.5821,-2.5824,-2.5863,-2.5866,-2.5898,-2.5981,-2.5987,0,0,0,-2.5446,-2.5474,-2.5503,-2.5553,-2.5609,-2.5658,-2.5718,-2.5745,-2.5816,-2.5775,-2.5885,-2.5887,-2.5907,-2.5919,-2.5924,-2.5942,-2.5868,-2.5868,-2.5868,-2.5488,-2.5519,-2.5587,-2.5634,-2.5683,-2.5745,-2.5788,-2.5835,-2.5853,-2.5879,-2.5903,-2.595,-2.5963,-2.5967,-2.5986,-2.5919,-2.5919,-2.5919,-2.5919,-2.5568,-2.5612,-2.5635,-2.5709,-2.5742,-2.5806,-2.5868,-2.5879,-2.5943,-2.5934,-2.5953,-2.5938,-2.5972,-2.599,-2.592,-2.5919,-2.5919,-2.5919,-2.5919,-2.5598,-2.5625,-2.5656,-2.5732,-2.5788,-2.5835,-2.5896,-2.5925,-2.5954,-2.5973,-2.6001,-2.6001,-2.6005,-2.5984,-2.5985,-2.5985,-2.5985,-2.5985,-2.5985,-2.5616,-2.5652,-2.5698,-2.5762,-2.5798,-2.585,-2.5914,-2.5951,-2.6,-2.6017,-2.6018,-2.6033,-2.597,-2.5953,-2.5988,-2.5987,-2.5987,-2.5987,-2.5987,-2.5683,-2.5673,-2.5744,-2.5781,-2.5859,-2.5912,-2.5949,-2.6023,-2.6059,-2.6088,-2.6101,-2.6049,-2.6056,-2.6052,-2.6038,-2.6093,-2.6093,-2.6093,-2.6093,-2.5708,-2.5715,-2.5794,-2.585,-2.591,-2.595,-2.6032,-2.6083,-2.6134,-2.6158,-2.6155,-2.6139,-2.6134,-2.6144,-2.6138,-2.6126,-2.6202,-2.6202,-2.6202,-2.5751,-2.5765,-2.5827,-2.5875,-2.5938,-2.5993,-2.607,-2.6136,-2.6192,-2.6207,-2.6178,-2.6173,-2.6148,-2.6139,-2.6151,-2.6141,-2.6118,0,0]},{"header":{"parameterUnit":"m.s-1","parameterCategory":1,"la1":30.2992,"la2":30.254,"lo1":-89.0895,"lo2":-89.0443,"dy":0.0025,"dx":0.0025,"nx":19,"ny":19,"refTime":"2026-03-09T09:00:00:Z","depth":0,"parameterNumber":3,"parameterNumberName":"V-component_of_WINDS"},"data":[0,0,0,4.6453,4.6456,4.6626,4.6626,4.6836,4.6838,0,0,0,0,0,0,0,0,0,0,0,4.6398,4.64,4.6452,4.6456,4.6625,4.6626,4.6836,4.6838,0,0,0,0,0,0,0,0,0,0,0,4.6398,4.6399,4.6401,4.6457,4.6625,4.6626,4.6836,4.671,0,0,0,0,0,0,0,0,0,0,4.6547,4.6492,4.6399,4.6401,4.6458,4.6625,4.6626,4.6704,4.6718,4.6757,0,4.679,0,4.6818,4.6852,4.6853,0,0,0,4.6459,4.6481,4.6531,4.6401,4.6459,4.6625,4.655,4.6712,4.6728,4.6775,4.6793,4.6801,4.6821,4.6853,4.6854,4.7071,4.7072,0,0,4.645,4.6426,4.652,4.654,4.6514,4.6545,4.6555,4.6721,4.674,4.6794,4.6806,4.6825,4.6855,4.6856,4.707,4.7071,0,0,0,4.6421,4.6419,4.6465,4.6532,4.6563,4.6549,4.6562,4.6732,4.6749,4.6809,4.6827,4.6856,4.6858,4.7069,4.7071,4.7092,0,0,0,4.6416,4.6403,4.6461,4.6448,4.6559,4.665,4.6569,4.6738,4.6757,4.6826,4.6856,4.686,4.7069,4.707,4.709,4.7106,0,0,0,4.6389,4.64,4.6423,4.6447,4.6519,4.6647,4.6674,4.6742,4.6768,4.6853,4.6861,4.7068,4.707,4.7087,4.7102,4.7158,0,0,0,4.6353,4.6438,4.6423,4.6525,4.6517,4.6659,4.6673,4.678,4.6855,4.6857,4.7069,4.7071,4.7087,4.71,4.7155,4.7201,4.7217,0,0,4.6447,4.6448,4.6511,4.6502,4.6642,4.6635,4.6779,4.6869,4.6898,4.7012,4.7017,4.7091,4.7102,4.7157,4.7317,4.733,0,0,0,4.6533,4.6577,4.6619,4.669,4.6762,4.6826,4.6897,4.6932,4.703,4.6951,4.7126,4.7134,4.7167,4.719,4.7201,4.7232,4.708,4.708,4.708,4.6631,4.6666,4.6772,4.6828,4.6897,4.6971,4.703,4.7089,4.7102,4.7143,4.7177,4.727,4.7296,4.7304,4.7336,4.7203,4.7203,4.7203,4.7203,4.6773,4.6843,4.6861,4.6971,4.7007,4.71,4.7176,4.7182,4.7274,4.7246,4.7277,4.7244,4.7317,4.7347,4.7205,4.7205,4.7205,4.7204,4.7204,4.6842,4.6882,4.6923,4.7031,4.7111,4.7165,4.7253,4.7283,4.7311,4.7342,4.7382,4.7382,4.7387,4.7359,4.736,4.736,4.736,4.736,4.7361,4.6898,4.6944,4.7015,4.7101,4.7152,4.7223,4.7301,4.7352,4.7416,4.7431,4.7432,4.7442,4.7318,4.7286,4.7366,4.7365,4.7364,4.7364,4.7363,4.703,4.7006,4.7115,4.7167,4.7272,4.7351,4.7388,4.7491,4.7537,4.7581,4.7585,4.7489,4.7492,4.7483,4.7458,4.7576,4.7576,4.7576,4.7576,4.7089,4.7094,4.7215,4.7296,4.7378,4.7424,4.7549,4.7612,4.7672,4.7703,4.769,4.7659,4.7649,4.7658,4.7646,4.7623,4.7781,4.7781,4.7781,4.7173,4.7188,4.7288,4.7348,4.7433,4.7506,4.7625,4.7718,4.7781,4.779,4.7729,4.772,4.767,4.7651,4.7658,4.7638,4.7596,0,0]}]]